This is the latest recevied weather packets stored in our database for station/object W8CWV-13. If no packets are shown the sender has not sent any weather packets the latest 10 day(s).
| Time | Temp. | Humidity | Pressure | Rain* | Wind** | Luminosity | Snow |
|---|---|---|---|---|---|---|---|
| 1777993175 | 31.67° C | 100% | 1018.2 hPa | - | - | - | - |
| 1777992601 | 31.11° C | 100% | 1018.3 hPa | - | - | - | - |
| 1777992027 | 31.67° C | 100% | 1018.1 hPa | - | - | - | - |
| 1777991449 | 31.11° C | 100% | 1018.2 hPa | - | - | - | - |
| 1777990877 | 31.11° C | 100% | 1018 hPa | - | - | - | - |
| 1777989733 | 31.11° C | 100% | 1018.1 hPa | - | - | - | - |
| 1777989155 | 30° C | 100% | 1018.2 hPa | - | - | - | - |
| 1777988580 | 30.56° C | 100% | 1018.4 hPa | - | - | - | - |
| 1777988013 | 30.56° C | 100% | 1018.5 hPa | - | - | - | - |
| 1777987428 | 30° C | 100% | 1018.6 hPa | - | - | - | - |
| 1777986853 | 28.89° C | 100% | 1018.8 hPa | - | - | - | - |
| 1777986281 | 27.78° C | 100% | 1018.8 hPa | - | - | - | - |
| 1777985701 | 28.33° C | 100% | 1018.5 hPa | - | - | - | - |
| 1777985128 | 26.67° C | 100% | 1018.4 hPa | - | - | - | - |
| 1777984553 | 25.56° C | 100% | 1018.6 hPa | - | - | - | - |
| 1777983976 | 25.56° C | 100% | 1019 hPa | - | - | - | - |
| 1777983398 | 25° C | 100% | 1018.9 hPa | - | - | - | - |
| 1777982247 | 21.67° C | 100% | 1018.9 hPa | - | - | - | - |
| 1777981663 | 19.44° C | 100% | 1019.8 hPa | - | - | - | - |
| 1777980516 | 15° C | 100% | 1019.9 hPa | - | - | - | - |
| 1777979935 | 15° C | 100% | 1019.9 hPa | - | - | - | - |
| 1777979363 | 14.44° C | 100% | 1019.9 hPa | - | - | - | - |
| 1777978791 | 13.89° C | 100% | 1019.7 hPa | - | - | - | - |
| 1777977642 | 12.78° C | 100% | 1019 hPa | - | - | - | - |
| 1777977071 | 12.22° C | 100% | 1018.7 hPa | - | - | - | - |
* Rain since midnight (hover to see other rain measurements)
** Current wind speed in m/s (hover to see current wind gust speed)